Location: Peebles
(55.6412°N, 3.1714°W)
Time: 14:14:00
(UTC+01:00)

Cosmos 1975 Rocket - Pass Details

Date: 26 September 2021
Orbit: 604 x 633 km, 82.5° (Epoch: 17 October)

Event Time Altitude Azimuth Distance (km) Brightness Sun altitude
Rises 20:49:29 0° 344° (NNW) 2,912 7.1 -15.9°
Reaches altitude 10° 20:51:47 10° 338° (NNW) 2,006 6.3 -16.2°
Maximum altitude 20:56:01 46° 266° (W) 852 4.2 -16.7°
Drops below altitude 10° 21:00:16 10° 194° (SSW) 2,006 5.6 -17.3°
Sets 21:02:34 0° 188° (S) 2,911 6.3 -17.6°
